Regional Weather Roundup
Issued by NWS

Home | Current Version | Previous Version | Text Only | Print | Product List | Glossary On
Versions: 1 2 3 4 5 6 7 8 9 10 11 12 13 14 15 16 17 18 19 20 21 22 23 24 25 26 27 28 29 30 31 32 33 34 35 36 37 38 39 40 41 42 43 44 45 46 47 48 49 50
000
ASUS45 KSLC 290510
RWRUT

UTAH REGIONAL WEATHER ROUNDUP
NATIONAL WEATHER SERVICE SALT LAKE CITY UT
1000 PM MST FRI NOV 28 2014

UTZ001>011-023>025-290600-

NORTHERN UTAH

CITY           SKY/WX    TMP DP  RH WIND       PRES   REMARKS
BRIGHAM CITY   MOCLDY    51  22  32 SW10      29.76F
HILL AFB       MOCLDY    53  19  26 S17       29.77F
LOGAN          CLEAR     53  20  27 VRB3      29.74F
OGDEN          MOCLDY    53  18  25 S14       29.75F
PROVO AIRPORT  PTCLDY    36  21  55 N6        29.85F WCI  31
SALT LAKE CITY MOCLDY    59  13  16 S23G35    29.76F
VERNAL         PTCLDY    32  21  64 NW7       29.91F WCI  26
WENDOVER       CLEAR     46  19  34 SW7       29.77S
HEBER CITY     PTCLDY    32  21  64 E3        29.86F
WEST JORDAN    CLEAR     55  27  33 SE24G30   29.79F

$$

UTZ012>022-026-027-290600-

SOUTHERN/CENTRAL UTAH

CITY           SKY/WX    TMP DP  RH WIND       PRES   REMARKS
BLANDING       PTCLDY    34  17  49 N9        30.11S WCI  27
BRYCE CANYON   CLEAR     22   9  57 W5        30.08S WCI  16
CEDAR CITY     PTCLDY    41  12  30 SW9       29.97F
DELTA          CLEAR     47  14  25 S13       29.88R
MILFORD        CLEAR     43  13  29 SW21      29.92S
MOAB/CYNLANDS  CLEAR     32  18  56 CALM      29.96F
PRICE          PTCLDY    32  21  64 N8        29.97F WCI  25
ST GEORGE      PTCLDY    45  16  31 CALM      29.96S
KANAB          PTCLDY    32  10  40 NE7       30.04S WCI  26

$$

REGIONAL REPORTS     COLORADO/ARIZONA

CITY           SKY/WX    TMP DP  RH WIND       PRES   REMARKS
CRAIG, CO      CLEAR     30  20  66 VRB3      29.92F
GRAND JUNCTION CLEAR     35  24  64 E6        29.98S WCI  30
RIFLE          CLEAR     32  24  72 E3        30.01S
MONTROSE       CLEAR     28  20  71 SE9       30.02F WCI  19
CORTEZ         CLEAR     24  15  68 E6        30.06F WCI  17
PAGE, AZ       PTCLDY    42  20  41 CALM      29.99S
GRAND CANYON   PTCLDY    21   2  43 CALM      30.11S
KINGMAN        CLEAR     45  15  30 SE3       29.98S
FLAGSTAFF      PTCLDY    38  16  40 W6        30.14S WCI  33

$$

REGIONAL REPORTS    NEVADA/IDAHO/WYOMING

CITY           SKY/WX    TMP DP  RH WIND       PRES   REMARKS
LAS VEGAS, NV  CLEAR     52  23  32 SW7       29.87S
ELY            CLEAR     43  12  28 S22       29.92S
ELKO           CLOUDY    39  17  41 W3        29.79F
POCATELLO, ID  PTCLDY    48  20  32 SW13      29.70R
BURLEY         CLOUDY    51  20  29 SW10      29.69R
EVANSTON, WY   PTCLDY    37  18  46 SW18      29.83F WCI  27
ROCK SPRINGS   PTCLDY    41  12  30 SW13      29.82F

$$



USA.gov is the U.S. government's official web portal to all federal, state and local government web resources and services.